Time,TemperatureF,DewpointF,PressureIn,WindDirection,WindDirectionDegrees,WindSpeedMPH,WindSpeedGustMPH,Humidity,HourlyPrecipIn,Conditions,Clouds,dailyrainin,SoftwareType,DateUTC
2013-08-13 00:01:00,57.5,52.0,30.06,NNW,338,0.0,0.0,82,0.00,,,0.00,WUHU216HW,2013-08-13 05:01:00,
2013-08-13 00:06:00,57.0,51.5,30.06,North,0,0.0,0.0,82,0.00,,,0.00,WUHU216HW,2013-08-13 05:06:00,
2013-08-13 00:11:00,57.0,51.5,30.06,North,0,0.0,0.0,82,0.00,,,0.00,WUHU216HW,2013-08-13 05:11:00,
2013-08-13 00:16:00,57.3,52.2,30.07,North,0,0.0,0.0,83,0.00,,,0.00,WUHU216HW,2013-08-13 05:16:00,
2013-08-13 00:21:00,57.3,52.5,30.07,NE,45,0.0,0.0,84,0.00,,,0.00,WUHU216HW,2013-08-13 05:21:00,
2013-08-13 00:26:00,58.6,54.1,30.07,NE,45,0.0,0.0,85,0.00,,,0.00,WUHU216HW,2013-08-13 05:26:00,
2013-08-13 00:31:00,58.8,54.3,30.07,ENE,68,0.0,0.0,85,0.00,,,0.00,WUHU216HW,2013-08-13 05:31:00,
2013-08-13 00:36:00,59.5,54.7,30.07,ENE,68,0.0,0.0,84,0.00,,,0.00,WUHU216HW,2013-08-13 05:36:00,
2013-08-13 00:41:00,59.7,54.8,30.07,NE,45,0.0,0.0,84,0.00,,,0.00,WUHU216HW,2013-08-13 05:41:00,
2013-08-13 00:46:00,59.7,54.8,30.07,NE,45,0.0,0.0,84,0.00,,,0.00,WUHU216HW,2013-08-13 05:46:00,
2013-08-13 00:51:00,59.7,54.8,30.07,ENE,68,0.0,0.0,84,0.00,,,0.00,WUHU216HW,2013-08-13 05:51:00,
2013-08-13 00:56:00,59.5,54.7,30.07,NE,45,0.0,0.0,84,0.00,,,0.00,WUHU216HW,2013-08-13 05:56:00,
2013-08-13 01:01:00,59.1,54.0,30.07,NE,45,0.0,0.0,83,0.00,,,0.00,WUHU216HW,2013-08-13 06:01:00,
2013-08-13 01:06:00,58.8,53.6,30.08,NNE,23,0.0,0.0,83,0.00,,,0.00,WUHU216HW,2013-08-13 06:06:00,
2013-08-13 01:11:00,58.8,53.6,30.08,NNE,23,0.0,0.0,83,0.00,,,0.00,WUHU216HW,2013-08-13 06:11:00,
2013-08-13 01:16:00,58.6,53.4,30.08,ESE,113,0.0,0.0,83,0.00,,,0.00,WUHU216HW,2013-08-13 06:16:00,
2013-08-13 01:21:00,58.1,52.9,30.08,SE,135,0.0,0.0,83,0.00,,,0.00,WUHU216HW,2013-08-13 06:21:00,
2013-08-13 01:26:00,58.1,53.2,30.08,NE,45,0.0,0.0,84,0.00,,,0.00,WUHU216HW,2013-08-13 06:26:00,
2013-08-13 01:31:00,58.1,53.2,30.08,NE,45,0.0,0.0,84,0.00,,,0.00,WUHU216HW,2013-08-13 06:31:00,
2013-08-13 01:36:00,57.9,53.0,30.08,SSE,158,0.0,0.0,84,0.00,,,0.00,WUHU216HW,2013-08-13 06:36:00,
2013-08-13 01:41:00,57.7,52.9,30.08,NE,45,0.0,0.0,84,0.00,,,0.00,WUHU216HW,2013-08-13 06:41:00,
2013-08-13 01:46:00,57.7,52.9,30.08,East,90,0.0,0.0,84,0.00,,,0.00,WUHU216HW,2013-08-13 06:46:00,
2013-08-13 01:51:00,57.3,52.5,30.08,ESE,113,0.0,0.0,84,0.00,,,0.00,WUHU216HW,2013-08-13 06:51:00,
2013-08-13 01:56:00,57.3,52.8,30.08,NE,45,0.0,0.0,85,0.00,,,0.00,WUHU216HW,2013-08-13 06:56:00,
2013-08-13 02:01:00,57.3,52.8,30.09,ESE,113,0.0,0.0,85,0.00,,,0.00,WUHU216HW,2013-08-13 07:01:00,
2013-08-13 02:06:00,57.5,53.0,30.09,ENE,68,0.0,0.0,85,0.00,,,0.00,WUHU216HW,2013-08-13 07:06:00,
2013-08-13 02:11:00,57.5,53.3,30.09,East,90,0.0,0.0,86,0.00,,,0.00,WUHU216HW,2013-08-13 07:11:00,
2013-08-13 02:16:00,57.5,53.3,30.09,ESE,113,0.0,0.0,86,0.00,,,0.00,WUHU216HW,2013-08-13 07:16:00,
2013-08-13 02:21:00,57.3,53.2,30.09,ENE,68,0.0,0.0,86,0.00,,,0.00,WUHU216HW,2013-08-13 07:21:00,
2013-08-13 02:26:00,57.2,53.0,30.09,ESE,113,0.0,0.0,86,0.00,,,0.00,WUHU216HW,2013-08-13 07:26:00,
2013-08-13 02:31:00,57.0,52.5,30.10,NE,45,0.0,0.0,85,0.00,,,0.00,WUHU216HW,2013-08-13 07:31:00,
2013-08-13 02:36:00,56.8,52.3,30.09,NE,45,0.0,0.0,85,0.00,,,0.00,WUHU216HW,2013-08-13 07:36:00,
2013-08-13 02:41:00,57.0,52.8,30.09,ENE,68,0.0,0.0,86,0.00,,,0.00,WUHU216HW,2013-08-13 07:41:00,
2013-08-13 02:46:00,56.8,52.3,30.09,East,90,0.0,0.0,85,0.00,,,0.00,WUHU216HW,2013-08-13 07:46:00,
2013-08-13 02:51:00,56.8,52.3,30.09,NE,45,0.0,0.0,85,0.00,,,0.00,WUHU216HW,2013-08-13 07:51:00,
2013-08-13 02:56:00,56.8,52.6,30.09,NE,45,0.0,0.0,86,0.00,,,0.00,WUHU216HW,2013-08-13 07:56:00,
2013-08-13 03:01:00,57.0,52.8,30.09,NE,45,0.0,0.0,86,0.00,,,0.00,WUHU216HW,2013-08-13 08:01:00,
2013-08-13 03:06:00,56.8,52.6,30.09,NE,45,0.0,0.0,86,0.00,,,0.00,WUHU216HW,2013-08-13 08:06:00,
2013-08-13 03:11:00,56.8,52.6,30.09,NE,45,0.0,0.0,86,0.00,,,0.00,WUHU216HW,2013-08-13 08:11:00,
2013-08-13 03:16:00,56.4,52.3,30.09,ENE,68,0.0,0.0,86,0.00,,,0.00,WUHU216HW,2013-08-13 08:16:00,
2013-08-13 03:21:00,56.3,52.1,30.10,NNE,23,0.0,0.0,86,0.00,,,0.00,WUHU216HW,2013-08-13 08:21:00,
2013-08-13 03:26:00,56.4,52.3,30.10,ENE,68,0.0,0.0,86,0.00,,,0.00,WUHU216HW,2013-08-13 08:26:00,
2013-08-13 03:31:00,56.4,52.3,30.10,NE,45,0.0,0.0,86,0.00,,,0.00,WUHU216HW,2013-08-13 08:31:00,
2013-08-13 03:36:00,56.3,52.1,30.10,ENE,68,0.0,0.0,86,0.00,,,0.00,WUHU216HW,2013-08-13 08:36:00,
2013-08-13 03:41:00,56.3,52.4,30.10,NE,45,0.0,0.0,87,0.00,,,0.00,WUHU216HW,2013-08-13 08:41:00,
2013-08-13 03:46:00,56.3,52.4,30.10,ENE,68,0.0,0.0,87,0.00,,,0.00,WUHU216HW,2013-08-13 08:46:00,
2013-08-13 03:51:00,56.3,52.4,30.10,NE,45,0.0,0.0,87,0.00,,,0.00,WUHU216HW,2013-08-13 08:51:00,
2013-08-13 03:56:00,56.1,52.2,30.10,NE,45,0.0,0.0,87,0.00,,,0.00,WUHU216HW,2013-08-13 08:56:00,
2013-08-13 04:01:00,55.9,52.0,30.10,NE,45,0.0,0.0,87,0.00,,,0.00,WUHU216HW,2013-08-13 09:01:00,
2013-08-13 04:06:00,55.9,52.0,30.10,ENE,68,0.0,0.0,87,0.00,,,0.00,WUHU216HW,2013-08-13 09:06:00,
2013-08-13 04:11:00,55.7,51.9,30.10,NE,45,0.0,0.0,87,0.00,,,0.00,WUHU216HW,2013-08-13 09:11:00,
2013-08-13 04:16:00,55.5,51.7,30.10,NE,45,0.0,0.0,87,0.00,,,0.00,WUHU216HW,2013-08-13 09:16:00,
2013-08-13 04:21:00,55.0,51.3,30.10,NE,45,0.0,0.0,87,0.00,,,0.00,WUHU216HW,2013-08-13 09:21:00,
2013-08-13 04:26:00,55.0,51.1,30.10,NE,45,0.0,0.0,87,0.00,,,0.00,WUHU216HW,2013-08-13 09:26:00,
2013-08-13 04:31:00,55.0,51.1,30.10,NE,45,0.0,0.0,87,0.00,,,0.00,WUHU216HW,2013-08-13 09:31:00,
2013-08-13 04:36:00,54.5,50.6,30.10,NE,45,0.0,0.0,87,0.00,,,0.00,WUHU216HW,2013-08-13 09:36:00,
2013-08-13 04:41:00,54.3,50.4,30.10,NE,45,0.0,0.0,87,0.00,,,0.00,WUHU216HW,2013-08-13 09:41:00,
2013-08-13 04:46:00,54.3,50.4,30.10,NNE,23,0.0,0.0,87,0.00,,,0.00,WUHU216HW,2013-08-13 09:46:00,
2013-08-13 04:51:00,54.5,50.6,30.10,ENE,68,0.0,0.0,87,0.00,,,0.00,WUHU216HW,2013-08-13 09:51:00,
2013-08-13 04:56:00,54.6,51.1,30.10,NE,45,0.0,0.0,88,0.00,,,0.00,WUHU216HW,2013-08-13 09:56:00,
2013-08-13 05:01:00,54.8,51.3,30.10,NE,45,0.0,0.0,88,0.00,,,0.00,WUHU216HW,2013-08-13 10:01:00,
2013-08-13 05:06:00,54.8,51.3,30.10,NE,45,0.0,0.0,88,0.00,,,0.00,WUHU216HW,2013-08-13 10:06:00,
2013-08-13 05:11:00,55.0,51.5,30.11,NE,45,0.0,0.0,88,0.00,,,0.00,WUHU216HW,2013-08-13 10:11:00,
2013-08-13 05:16:00,54.8,51.3,30.11,NE,45,0.0,0.0,88,0.00,,,0.00,WUHU216HW,2013-08-13 10:16:00,
2013-08-13 05:21:00,54.6,51.4,30.11,NE,45,0.0,0.0,89,0.00,,,0.00,WUHU216HW,2013-08-13 10:21:00,
2013-08-13 05:26:00,54.6,51.4,30.11,NE,45,0.0,0.0,89,0.00,,,0.00,WUHU216HW,2013-08-13 10:26:00,
2013-08-13 05:31:00,54.8,51.8,30.11,NNE,23,0.0,0.0,89,0.00,,,0.00,WUHU216HW,2013-08-13 10:31:00,
2013-08-13 05:36:00,54.8,51.6,30.11,NE,45,0.0,0.0,89,0.00,,,0.00,WUHU216HW,2013-08-13 10:36:00,
2013-08-13 05:41:00,54.6,51.4,30.11,NE,45,0.0,0.0,89,0.00,,,0.00,WUHU216HW,2013-08-13 10:41:00,
2013-08-13 05:46:00,54.6,51.4,30.11,NE,45,0.0,0.0,89,0.00,,,0.00,WUHU216HW,2013-08-13 10:46:00,
2013-08-13 05:51:00,54.6,51.4,30.11,ENE,68,0.0,0.0,89,0.00,,,0.00,WUHU216HW,2013-08-13 10:51:00,
2013-08-13 05:56:00,54.6,51.4,30.11,NE,45,0.0,0.0,89,0.00,,,0.00,WUHU216HW,2013-08-13 10:56:00,
2013-08-13 06:01:00,54.8,51.6,30.11,NNE,23,0.0,0.0,89,0.00,,,0.00,WUHU216HW,2013-08-13 11:01:00,
2013-08-13 06:06:00,55.0,51.8,30.11,NE,45,0.0,0.0,89,0.00,,,0.00,WUHU216HW,2013-08-13 11:06:00,
2013-08-13 06:11:00,55.0,51.8,30.11,NNE,23,0.0,0.0,89,0.00,,,0.00,WUHU216HW,2013-08-13 11:11:00,
2013-08-13 06:16:00,55.0,51.8,30.11,ENE,68,0.0,0.0,89,0.00,,,0.00,WUHU216HW,2013-08-13 11:16:00,
2013-08-13 06:21:00,55.0,52.1,30.12,NNE,23,0.0,0.0,90,0.00,,,0.00,WUHU216HW,2013-08-13 11:21:00,
2013-08-13 06:26:00,54.6,51.8,30.11,NNE,23,0.0,0.0,90,0.00,,,0.00,WUHU216HW,2013-08-13 11:26:00,
2013-08-13 06:31:00,54.6,51.8,30.12,NE,45,0.0,0.0,90,0.00,,,0.00,WUHU216HW,2013-08-13 11:31:00,
2013-08-13 06:36:00,54.6,51.8,30.12,NE,45,0.0,0.0,90,0.00,,,0.00,WUHU216HW,2013-08-13 11:36:00,
2013-08-13 06:41:00,55.0,52.1,30.12,NE,45,0.0,0.0,90,0.00,,,0.00,WUHU216HW,2013-08-13 11:41:00,
2013-08-13 06:46:00,54.8,51.9,30.12,NE,45,0.0,0.0,90,0.00,,,0.00,WUHU216HW,2013-08-13 11:46:00,
2013-08-13 06:51:00,54.8,51.9,30.13,NE,45,0.0,0.0,90,0.00,,,0.00,WUHU216HW,2013-08-13 11:51:00,
2013-08-13 06:56:00,55.0,52.1,30.13,ENE,68,0.0,0.0,90,0.00,,,0.00,WUHU216HW,2013-08-13 11:56:00,
2013-08-13 07:01:00,55.0,52.1,30.13,NE,45,0.0,0.0,90,0.00,,,0.00,WUHU216HW,2013-08-13 12:01:00,
2013-08-13 07:06:00,55.2,52.3,30.13,NE,45,0.0,0.0,90,0.00,,,0.00,WUHU216HW,2013-08-13 12:06:00,
2013-08-13 07:11:00,55.2,52.3,30.13,NE,45,0.0,0.0,90,0.00,,,0.00,WUHU216HW,2013-08-13 12:11:00,
2013-08-13 07:16:00,55.2,52.3,30.13,NE,45,0.0,0.0,90,0.00,,,0.00,WUHU216HW,2013-08-13 12:16:00,
2013-08-13 07:21:00,55.7,52.8,30.14,ESE,113,0.0,0.0,90,0.00,,,0.00,WUHU216HW,2013-08-13 12:21:00,
2013-08-13 07:26:00,56.1,53.5,30.14,ESE,113,0.0,0.0,91,0.00,,,0.00,WUHU216HW,2013-08-13 12:26:00,
2013-08-13 07:31:00,56.8,53.8,30.14,ENE,68,0.0,0.0,91,0.00,,,0.00,WUHU216HW,2013-08-13 12:31:00,
2013-08-13 07:36:00,58.4,56.1,30.15,ENE,68,0.0,0.0,92,0.00,,,0.00,WUHU216HW,2013-08-13 12:36:00,
2013-08-13 07:41:00,60.4,58.1,30.15,East,90,0.0,0.0,92,0.00,,,0.00,WUHU216HW,2013-08-13 12:41:00,
2013-08-13 07:46:00,62.6,60.5,30.15,NE,45,0.0,0.0,93,0.00,,,0.00,WUHU216HW,2013-08-13 12:46:00,
2013-08-13 07:51:00,64.7,62.7,30.15,NNE,23,0.0,0.0,93,0.00,,,0.00,WUHU216HW,2013-08-13 12:51:00,
2013-08-13 07:56:00,65.6,62.9,30.15,ENE,68,0.0,0.0,91,0.00,,,0.00,WUHU216HW,2013-08-13 12:56:00,
2013-08-13 08:01:00,66.3,62.6,30.15,ENE,68,0.0,0.0,86,0.00,,,0.00,WUHU216HW,2013-08-13 13:01:00,
2013-08-13 08:06:00,67.1,61.1,30.15,ENE,68,0.0,0.0,81,0.00,,,0.00,WUHU216HW,2013-08-13 13:06:00,
2013-08-13 08:11:00,67.6,60.5,30.15,ENE,68,0.0,0.0,78,0.00,,,0.00,WUHU216HW,2013-08-13 13:11:00,
2013-08-13 08:16:00,67.8,59.8,30.15,ENE,68,0.0,0.0,76,0.00,,,0.00,WUHU216HW,2013-08-13 13:16:00,
2013-08-13 08:21:00,68.1,59.5,30.15,ESE,113,0.0,0.0,74,0.00,,,0.00,WUHU216HW,2013-08-13 13:21:00,
2013-08-13 08:26:00,68.7,60.0,30.15,NNE,23,0.0,0.0,74,0.00,,,0.00,WUHU216HW,2013-08-13 13:26:00,
2013-08-13 08:31:00,69.4,59.8,30.16,ENE,68,0.0,0.0,72,0.00,,,0.00,WUHU216HW,2013-08-13 13:31:00,
2013-08-13 08:36:00,69.0,58.4,30.16,ENE,68,0.0,0.0,69,0.00,,,0.00,WUHU216HW,2013-08-13 13:36:00,
2013-08-13 08:41:00,68.7,58.1,30.16,ENE,68,0.0,0.0,69,0.00,,,0.00,WUHU216HW,2013-08-13 13:41:00,
2013-08-13 08:46:00,68.5,57.9,30.16,East,90,0.0,0.0,69,0.00,,,0.00,WUHU216HW,2013-08-13 13:46:00,
2013-08-13 08:51:00,68.7,58.5,30.16,East,90,0.0,0.0,70,0.00,,,0.00,WUHU216HW,2013-08-13 13:51:00,
2013-08-13 08:56:00,69.0,58.4,30.16,NE,45,0.0,0.0,69,0.00,,,0.00,WUHU216HW,2013-08-13 13:56:00,
2013-08-13 09:01:00,68.7,57.2,30.16,East,90,0.0,0.0,67,0.00,,,0.00,WUHU216HW,2013-08-13 14:01:00,
2013-08-13 09:06:00,68.1,56.7,30.17,ESE,113,0.0,0.0,67,0.00,,,0.00,WUHU216HW,2013-08-13 14:06:00,
2013-08-13 09:12:00,68.5,57.5,30.16,East,90,0.0,0.0,68,0.00,,,0.00,WUHU216HW,2013-08-13 14:12:00,
2013-08-13 09:16:00,68.9,57.7,30.17,ESE,113,0.0,0.0,68,0.00,,,0.00,WUHU216HW,2013-08-13 14:16:00,
2013-08-13 09:21:00,68.9,57.0,30.17,ENE,68,0.0,0.0,66,0.00,,,0.00,WUHU216HW,2013-08-13 14:21:00,
2013-08-13 09:26:00,68.5,56.6,30.17,NW,315,0.0,0.0,66,0.00,,,0.00,WUHU216HW,2013-08-13 14:26:00,
2013-08-13 09:32:00,68.3,56.1,30.17,NE,45,0.0,0.0,65,0.00,,,0.00,WUHU216HW,2013-08-13 14:32:00,
2013-08-13 09:37:00,68.3,55.6,30.18,NE,45,0.0,0.0,64,0.00,,,0.00,WUHU216HW,2013-08-13 14:37:00,
2013-08-13 09:41:00,68.3,55.6,30.18,ENE,68,0.0,0.0,64,0.00,,,0.00,WUHU216HW,2013-08-13 14:41:00,
2013-08-13 09:46:00,68.7,56.4,30.18,NNE,23,0.0,0.0,65,0.00,,,0.00,WUHU216HW,2013-08-13 14:46:00,
2013-08-13 09:51:00,69.0,55.0,30.18,NE,45,0.0,0.0,61,0.00,,,0.00,WUHU216HW,2013-08-13 14:51:00,
2013-08-13 09:57:00,68.7,55.1,30.18,ENE,68,0.0,0.0,62,0.00,,,0.00,WUHU216HW,2013-08-13 14:57:00,
2013-08-13 10:01:00,68.9,55.3,30.18,ENE,68,0.0,0.0,62,0.00,,,0.00,WUHU216HW,2013-08-13 15:01:00,
2013-08-13 10:06:00,69.0,55.5,30.18,North,0,0.0,0.0,62,0.00,,,0.00,WUHU216HW,2013-08-13 15:06:00,
2013-08-13 10:11:00,69.4,55.4,30.18,ENE,68,0.0,0.0,61,0.00,,,0.00,WUHU216HW,2013-08-13 15:11:00,
2013-08-13 10:16:00,69.6,56.0,30.18,SE,135,0.0,0.0,62,0.00,,,0.00,WUHU216HW,2013-08-13 15:16:00,
2013-08-13 10:22:00,69.9,55.9,30.18,ENE,68,0.0,0.0,61,0.00,,,0.00,WUHU216HW,2013-08-13 15:22:00,
2013-08-13 10:27:00,70.3,55.3,30.18,North,0,0.0,0.0,59,0.00,,,0.00,WUHU216HW,2013-08-13 15:27:00,
2013-08-13 10:32:00,70.5,55.0,30.18,NE,45,0.0,0.0,58,0.00,,,0.00,WUHU216HW,2013-08-13 15:32:00,
2013-08-13 10:36:00,70.8,54.8,30.18,ENE,68,0.0,0.0,57,0.00,,,0.00,WUHU216HW,2013-08-13 15:36:00,
2013-08-13 10:42:00,71.0,55.5,30.18,North,0,0.0,0.0,58,0.00,,,0.00,WUHU216HW,2013-08-13 15:42:00,
2013-08-13 10:47:00,71.2,55.1,30.18,ENE,68,0.0,0.0,56,0.00,,,0.00,WUHU216HW,2013-08-13 15:47:00,
2013-08-13 10:52:00,71.2,54.1,30.18,East,90,0.0,0.0,55,0.00,,,0.00,WUHU216HW,2013-08-13 15:52:00,
2013-08-13 10:57:00,71.2,53.6,30.18,ENE,68,0.0,0.0,54,0.00,,,0.00,WUHU216HW,2013-08-13 15:57:00,
2013-08-13 11:02:00,71.6,53.9,30.18,East,90,0.0,0.0,54,0.00,,,0.00,WUHU216HW,2013-08-13 16:02:00,
2013-08-13 11:07:00,71.7,53.6,30.18,ENE,68,0.0,0.0,53,0.00,,,0.00,WUHU216HW,2013-08-13 16:07:00,
2013-08-13 11:12:00,71.9,53.8,30.18,ENE,68,0.0,0.0,53,0.00,,,0.00,WUHU216HW,2013-08-13 16:12:00,
2013-08-13 11:17:00,72.1,53.9,30.18,NE,45,0.0,0.0,53,0.00,,,0.00,WUHU216HW,2013-08-13 16:17:00,
2013-08-13 11:22:00,72.6,52.9,30.18,North,0,0.0,0.0,50,0.00,,,0.00,WUHU216HW,2013-08-13 16:22:00,
2013-08-13 11:27:00,72.5,52.7,30.18,NW,315,0.0,0.0,50,0.00,,,0.00,WUHU216HW,2013-08-13 16:27:00,
2013-08-13 11:32:00,72.6,53.2,30.18,NNE,23,0.0,0.0,50,0.00,,,0.00,WUHU216HW,2013-08-13 16:32:00,
2013-08-13 11:37:00,73.0,53.2,30.18,NW,315,0.0,0.0,50,0.00,,,0.00,WUHU216HW,2013-08-13 16:37:00,
2013-08-13 11:42:00,73.0,52.6,30.18,NW,315,0.0,0.0,49,0.00,,,0.00,WUHU216HW,2013-08-13 16:42:00,
2013-08-13 11:47:00,73.0,52.6,30.18,NW,315,0.0,0.0,49,0.00,,,0.00,WUHU216HW,2013-08-13 16:47:00,
2013-08-13 11:52:00,73.5,53.1,30.18,NNE,23,0.0,0.0,49,0.00,,,0.00,WUHU216HW,2013-08-13 16:52:00,
2013-08-13 11:57:00,74.1,54.3,30.18,North,0,0.0,0.0,50,0.00,,,0.00,WUHU216HW,2013-08-13 16:57:00,
2013-08-13 12:02:00,73.2,52.8,30.18,WNW,293,0.0,0.0,49,0.00,,,0.00,WUHU216HW,2013-08-13 17:02:00,
2013-08-13 12:07:00,72.3,52.0,30.18,NW,315,0.0,0.0,49,0.00,,,0.00,WUHU216HW,2013-08-13 17:07:00,
2013-08-13 12:12:00,71.9,52.3,30.18,NW,315,0.0,0.0,50,0.00,,,0.00,WUHU216HW,2013-08-13 17:12:00,
2013-08-13 12:17:00,73.2,53.4,30.18,WNW,293,0.0,0.0,50,0.00,,,0.00,WUHU216HW,2013-08-13 17:17:00,
2013-08-13 12:22:00,73.4,52.4,30.18,NNE,23,0.0,0.0,48,0.00,,,0.00,WUHU216HW,2013-08-13 17:22:00,
2013-08-13 12:27:00,74.1,53.4,30.18,NW,315,0.0,0.0,48,0.00,,,0.00,WUHU216HW,2013-08-13 17:27:00,
2013-08-13 12:32:00,74.8,53.8,30.18,NE,45,0.0,0.0,48,0.00,,,0.00,WUHU216HW,2013-08-13 17:32:00,
2013-08-13 12:37:00,74.1,52.5,30.18,NNE,23,0.0,0.0,47,0.00,,,0.00,WUHU216HW,2013-08-13 17:37:00,
2013-08-13 12:42:00,72.6,51.7,30.18,NW,315,0.0,0.0,48,0.00,,,0.00,WUHU216HW,2013-08-13 17:42:00,
2013-08-13 12:47:00,73.0,52.0,30.18,WNW,293,0.0,0.0,48,0.00,,,0.00,WUHU216HW,2013-08-13 17:47:00,
2013-08-13 12:52:00,73.7,52.7,30.18,ENE,68,0.0,0.0,48,0.00,,,0.00,WUHU216HW,2013-08-13 17:52:00,
2013-08-13 12:57:00,75.0,53.3,30.18,NE,45,0.0,0.0,47,0.00,,,0.00,WUHU216HW,2013-08-13 17:57:00,
2013-08-13 13:02:00,75.7,54.0,30.18,NNW,338,0.0,0.0,47,0.00,,,0.00,WUHU216HW,2013-08-13 18:02:00,
2013-08-13 13:07:00,76.2,54.5,30.18,SE,135,0.0,0.0,47,0.00,,,0.00,WUHU216HW,2013-08-13 18:07:00,
2013-08-13 13:12:00,76.1,53.7,30.17,NE,45,0.0,0.0,46,0.00,,,0.00,WUHU216HW,2013-08-13 18:12:00,
2013-08-13 13:17:00,76.1,53.7,30.17,ENE,68,0.0,0.0,46,0.00,,,0.00,WUHU216HW,2013-08-13 18:17:00,
2013-08-13 13:22:00,76.2,53.3,30.18,WNW,293,0.0,0.0,45,0.00,,,0.00,WUHU216HW,2013-08-13 18:22:00,
2013-08-13 13:27:00,76.6,53.0,30.17,West,270,0.0,0.0,44,0.00,,,0.00,WUHU216HW,2013-08-13 18:27:00,
2013-08-13 13:32:00,76.2,52.7,30.17,ENE,68,0.0,0.0,44,0.00,,,0.00,WUHU216HW,2013-08-13 18:32:00,
2013-08-13 13:37:00,75.3,51.8,30.18,NNW,338,0.0,0.0,44,0.00,,,0.00,WUHU216HW,2013-08-13 18:37:00,
2013-08-13 13:42:00,74.4,52.2,30.18,NNW,338,0.0,0.0,46,0.00,,,0.00,WUHU216HW,2013-08-13 18:42:00,
2013-08-13 13:47:00,75.0,52.7,30.18,North,0,0.0,0.0,46,0.00,,,0.00,WUHU216HW,2013-08-13 18:47:00,
2013-08-13 13:52:00,75.7,53.4,30.18,East,90,0.0,0.0,46,0.00,,,0.00,WUHU216HW,2013-08-13 18:52:00,
2013-08-13 13:57:00,76.2,52.7,30.17,NW,315,0.0,0.0,44,0.00,,,0.00,WUHU216HW,2013-08-13 18:57:00,
2013-08-13 14:02:00,76.8,53.1,30.17,WNW,293,0.0,0.0,44,0.00,,,0.00,WUHU216HW,2013-08-13 19:02:00,
2013-08-13 14:07:00,77.5,53.2,30.17,NW,315,0.0,0.0,43,0.00,,,0.00,WUHU216HW,2013-08-13 19:07:00,
2013-08-13 14:12:00,77.5,52.6,30.17,NW,315,0.0,0.0,42,0.00,,,0.00,WUHU216HW,2013-08-13 19:12:00,
2013-08-13 14:17:00,77.1,51.6,30.17,ESE,113,0.0,0.0,41,0.00,,,0.00,WUHU216HW,2013-08-13 19:17:00,
2013-08-13 14:22:00,76.8,52.5,30.17,ENE,68,0.0,0.0,43,0.00,,,0.00,WUHU216HW,2013-08-13 19:22:00,
2013-08-13 14:27:00,76.8,52.5,30.17,NW,315,0.0,0.0,43,0.00,,,0.00,WUHU216HW,2013-08-13 19:27:00,
2013-08-13 14:32:00,75.9,51.7,30.17,North,0,0.0,0.0,43,0.00,,,0.00,WUHU216HW,2013-08-13 19:32:00,
2013-08-13 14:37:00,73.9,50.5,30.17,NW,315,0.0,0.0,44,0.00,,,0.00,WUHU216HW,2013-08-13 19:37:00,
2013-08-13 14:42:00,73.7,50.9,30.17,NW,315,0.0,0.0,45,0.00,,,0.00,WUHU216HW,2013-08-13 19:42:00,
2013-08-13 14:47:00,74.4,51.0,30.17,NW,315,0.0,0.0,44,0.00,,,0.00,WUHU216HW,2013-08-13 19:47:00,
2013-08-13 14:52:00,75.3,52.0,30.17,NE,45,0.0,0.0,44,0.00,,,0.00,WUHU216HW,2013-08-13 19:52:00,
2013-08-13 14:57:00,75.0,51.5,30.17,NE,45,0.0,0.0,44,0.00,,,0.00,WUHU216HW,2013-08-13 19:57:00,
2013-08-13 15:02:00,75.0,52.7,30.17,NW,315,0.0,0.0,46,0.00,,,0.00,WUHU216HW,2013-08-13 20:02:00,
2013-08-13 15:07:00,75.0,51.9,30.17,NW,315,0.0,0.0,46,0.00,,,0.00,WUHU216HW,2013-08-13 20:07:00,
2013-08-13 15:12:00,75.9,53.6,30.16,ENE,68,0.0,0.0,46,0.00,,,0.00,WUHU216HW,2013-08-13 20:12:00,
2013-08-13 15:17:00,76.2,52.0,30.16,NW,315,0.0,0.0,43,0.00,,,0.00,WUHU216HW,2013-08-13 20:17:00,
2013-08-13 15:22:00,76.1,51.9,30.16,ENE,68,0.0,0.0,43,0.00,,,0.00,WUHU216HW,2013-08-13 20:22:00,
2013-08-13 15:27:00,76.8,53.1,30.16,WSW,248,0.0,0.0,44,0.00,,,0.00,WUHU216HW,2013-08-13 20:27:00,
2013-08-13 15:32:00,77.5,53.2,30.16,NW,315,0.0,0.0,43,0.00,,,0.00,WUHU216HW,2013-08-13 20:32:00,
2013-08-13 15:37:00,77.5,52.6,30.16,NW,315,0.0,0.0,42,0.00,,,0.00,WUHU216HW,2013-08-13 20:37:00,
2013-08-13 15:42:00,77.5,51.9,30.16,NW,315,0.0,0.0,41,0.00,,,0.00,WUHU216HW,2013-08-13 20:42:00,
2013-08-13 15:47:00,77.0,52.7,30.16,NNW,338,0.0,0.0,43,0.00,,,0.00,WUHU216HW,2013-08-13 20:47:00,
2013-08-13 15:52:00,77.1,52.2,30.16,NW,315,0.0,0.0,42,0.00,,,0.00,WUHU216HW,2013-08-13 20:52:00,
2013-08-13 15:57:00,77.1,52.2,30.16,NW,315,0.0,0.0,42,0.00,,,0.00,WUHU216HW,2013-08-13 20:57:00,
2013-08-13 16:02:00,76.8,51.3,30.16,NNW,338,0.0,0.0,41,0.00,,,0.00,WUHU216HW,2013-08-13 21:02:00,
2013-08-13 16:07:00,76.8,51.3,30.16,WNW,293,0.0,0.0,41,0.00,,,0.00,WUHU216HW,2013-08-13 21:07:00,
2013-08-13 16:12:00,76.6,51.1,30.16,WNW,293,0.0,0.0,41,0.00,,,0.00,WUHU216HW,2013-08-13 21:12:00,
2013-08-13 16:17:00,76.2,51.4,30.15,NNW,338,0.0,0.0,42,0.00,,,0.00,WUHU216HW,2013-08-13 21:17:00,
2013-08-13 16:22:00,76.6,51.1,30.15,NNW,338,0.0,0.0,41,0.00,,,0.00,WUHU216HW,2013-08-13 21:22:00,
2013-08-13 16:27:00,76.4,51.0,30.15,NW,315,0.0,0.0,41,0.00,,,0.00,WUHU216HW,2013-08-13 21:27:00,
2013-08-13 16:32:00,76.2,50.8,30.15,North,0,0.0,0.0,41,0.00,,,0.00,WUHU216HW,2013-08-13 21:32:00,
2013-08-13 16:37:00,76.6,51.1,30.15,NW,315,0.0,0.0,41,0.00,,,0.00,WUHU216HW,2013-08-13 21:37:00,
2013-08-13 16:42:00,76.8,51.9,30.15,North,0,0.0,0.0,42,0.00,,,0.00,WUHU216HW,2013-08-13 21:42:00,
2013-08-13 16:47:00,76.8,51.3,30.15,WNW,293,0.0,0.0,41,0.00,,,0.00,WUHU216HW,2013-08-13 21:47:00,
2013-08-13 16:52:00,76.8,51.3,30.15,NNW,338,0.0,0.0,41,0.00,,,0.00,WUHU216HW,2013-08-13 21:52:00,
2013-08-13 16:57:00,76.2,50.8,30.15,WNW,293,0.0,0.0,41,0.00,,,0.00,WUHU216HW,2013-08-13 21:57:00,
2013-08-13 17:02:00,76.2,51.4,30.15,WNW,293,0.0,0.0,42,0.00,,,0.00,WUHU216HW,2013-08-13 22:02:00,
2013-08-13 17:07:00,76.6,51.1,30.15,NNW,338,0.0,0.0,41,0.00,,,0.00,WUHU216HW,2013-08-13 22:07:00,
2013-08-13 17:12:00,77.0,51.5,30.15,NW,315,0.0,0.0,41,0.00,,,0.00,WUHU216HW,2013-08-13 22:12:00,
2013-08-13 17:17:00,77.5,51.9,30.15,North,0,0.0,0.0,41,0.00,,,0.00,WUHU216HW,2013-08-13 22:17:00,
2013-08-13 17:22:00,77.3,51.8,30.15,East,90,0.0,0.0,41,0.00,,,0.00,WUHU216HW,2013-08-13 22:22:00,
2013-08-13 17:27:00,76.6,51.1,30.14,NE,45,0.0,0.0,41,0.00,,,0.00,WUHU216HW,2013-08-13 22:27:00,
2013-08-13 17:32:00,75.9,51.1,30.14,ENE,68,0.0,0.0,42,0.00,,,0.00,WUHU216HW,2013-08-13 22:32:00,
2013-08-13 17:37:00,75.3,51.8,30.14,ENE,68,0.0,0.0,44,0.00,,,0.00,WUHU216HW,2013-08-13 22:37:00,
2013-08-13 17:42:00,75.3,51.8,30.14,NNW,338,0.0,0.0,44,0.00,,,0.00,WUHU216HW,2013-08-13 22:42:00,
2013-08-13 17:47:00,74.4,51.0,30.14,ENE,68,0.0,0.0,44,0.00,,,0.00,WUHU216HW,2013-08-13 22:47:00,
2013-08-13 17:52:00,73.0,50.3,30.14,ENE,68,0.0,0.0,45,0.00,,,0.00,WUHU216HW,2013-08-13 22:52:00,
2013-08-13 17:57:00,72.1,49.4,30.14,ENE,68,0.0,0.0,45,0.00,,,0.00,WUHU216HW,2013-08-13 22:57:00,
2013-08-13 18:02:00,71.7,50.3,30.14,ENE,68,0.0,0.0,47,0.00,,,0.00,WUHU216HW,2013-08-13 23:02:00,
2013-08-13 18:07:00,71.9,51.7,30.13,ENE,68,0.0,0.0,49,0.00,,,0.00,WUHU216HW,2013-08-13 23:07:00,
2013-08-13 18:12:00,72.6,51.1,30.13,ENE,68,0.0,0.0,47,0.00,,,0.00,WUHU216HW,2013-08-13 23:12:00,
2013-08-13 18:17:00,73.5,51.9,30.13,ENE,68,0.0,0.0,47,0.00,,,0.00,WUHU216HW,2013-08-13 23:17:00,
2013-08-13 18:22:00,74.8,52.5,30.13,ENE,68,0.0,0.0,46,0.00,,,0.00,WUHU216HW,2013-08-13 23:22:00,
2013-08-13 18:27:00,75.3,53.1,30.13,WSW,248,0.0,0.0,46,0.00,,,0.00,WUHU216HW,2013-08-13 23:27:00,
2013-08-13 18:32:00,75.5,52.6,30.13,West,270,0.0,0.0,45,0.00,,,0.00,WUHU216HW,2013-08-13 23:32:00,
2013-08-13 18:37:00,75.0,52.1,30.13,WNW,293,0.0,0.0,45,0.00,,,0.00,WUHU216HW,2013-08-13 23:37:00,
2013-08-13 18:42:00,74.8,51.9,30.13,WNW,293,0.0,0.0,45,0.00,,,0.00,WUHU216HW,2013-08-13 23:42:00,
2013-08-13 18:47:00,74.1,51.3,30.13,NW,315,0.0,0.0,45,0.00,,,0.00,WUHU216HW,2013-08-13 23:47:00,
2013-08-13 18:52:00,73.2,51.6,30.13,ENE,68,0.0,0.0,47,0.00,,,0.00,WUHU216HW,2013-08-13 23:52:00,
2013-08-13 18:57:00,72.3,50.8,30.13,ENE,68,0.0,0.0,47,0.00,,,0.00,WUHU216HW,2013-08-13 23:57:00,
2013-08-13 19:02:00,71.7,50.3,30.13,NE,45,0.0,0.0,47,0.00,,,0.00,WUHU216HW,2013-08-14 00:02:00,
2013-08-13 19:07:00,71.6,51.3,30.13,NE,45,0.0,0.0,49,0.00,,,0.00,WUHU216HW,2013-08-14 00:07:00,
2013-08-13 19:12:00,72.5,52.1,30.13,NE,45,0.0,0.0,49,0.00,,,0.00,WUHU216HW,2013-08-14 00:12:00,
2013-08-13 19:17:00,72.8,52.5,30.13,NE,45,0.0,0.0,49,0.00,,,0.00,WUHU216HW,2013-08-14 00:17:00,
2013-08-13 19:22:00,73.5,52.5,30.13,NE,45,0.0,0.0,48,0.00,,,0.00,WUHU216HW,2013-08-14 00:22:00,
2013-08-13 19:27:00,76.1,54.9,30.13,NE,45,0.0,0.0,48,0.00,,,0.00,WUHU216HW,2013-08-14 00:27:00,
2013-08-13 19:32:00,77.9,55.3,30.13,NE,45,0.0,0.0,46,0.00,,,0.00,WUHU216HW,2013-08-14 00:32:00,
2013-08-13 19:37:00,79.3,54.8,30.13,NE,45,0.0,0.0,43,0.00,,,0.00,WUHU216HW,2013-08-14 00:37:00,
2013-08-13 19:42:00,79.5,55.6,30.13,NE,45,0.0,0.0,44,0.00,,,0.00,WUHU216HW,2013-08-14 00:42:00,
2013-08-13 19:47:00,78.4,54.6,30.13,NE,45,0.0,0.0,44,0.00,,,0.00,WUHU216HW,2013-08-14 00:47:00,
2013-08-13 19:53:00,75.7,53.4,30.13,NE,45,0.0,0.0,46,0.00,,,0.00,WUHU216HW,2013-08-14 00:53:00,
2013-08-13 19:58:00,74.1,52.5,30.13,NE,45,0.0,0.0,47,0.00,,,0.00,WUHU216HW,2013-08-14 00:58:00,
2013-08-13 20:03:00,72.3,51.4,30.13,NE,45,0.0,0.0,48,0.00,,,0.00,WUHU216HW,2013-08-14 01:03:00,
2013-08-13 20:08:00,69.6,50.1,30.13,NE,45,0.0,0.0,50,0.00,,,0.00,WUHU216HW,2013-08-14 01:08:00,
2013-08-13 20:13:00,68.1,49.3,30.13,NE,45,0.0,0.0,51,0.00,,,0.00,WUHU216HW,2013-08-14 01:13:00,
2013-08-13 20:18:00,66.5,48.4,30.13,NE,45,0.0,0.0,52,0.00,,,0.00,WUHU216HW,2013-08-14 01:18:00,
2013-08-13 20:22:00,64.5,47.4,30.13,NE,45,0.0,0.0,54,0.00,,,0.00,WUHU216HW,2013-08-14 01:22:00,
2013-08-13 20:27:00,63.5,46.9,30.13,NE,45,0.0,0.0,55,0.00,,,0.00,WUHU216HW,2013-08-14 01:27:00,
2013-08-13 20:32:00,62.4,46.4,30.13,NE,45,0.0,0.0,56,0.00,,,0.00,WUHU216HW,2013-08-14 01:32:00,
2013-08-13 20:37:00,61.1,46.7,30.13,NE,45,0.0,0.0,59,0.00,,,0.00,WUHU216HW,2013-08-14 01:37:00,
2013-08-13 20:42:00,60.4,46.0,30.13,NE,45,0.0,0.0,59,0.00,,,0.00,WUHU216HW,2013-08-14 01:42:00,
2013-08-13 20:47:00,59.5,45.1,30.13,NE,45,0.0,0.0,59,0.00,,,0.00,WUHU216HW,2013-08-14 01:47:00,
2013-08-13 20:52:00,58.4,45.0,30.14,NE,45,0.0,0.0,61,0.00,,,0.00,WUHU216HW,2013-08-14 01:52:00,
2013-08-13 20:57:00,57.9,45.3,30.14,NE,45,0.0,0.0,63,0.00,,,0.00,WUHU216HW,2013-08-14 01:57:00,
2013-08-13 21:02:00,57.3,44.9,30.14,NE,45,0.0,0.0,64,0.00,,,0.00,WUHU216HW,2013-08-14 02:02:00,
2013-08-13 21:07:00,56.8,45.1,30.15,NE,45,0.0,0.0,65,0.00,,,0.00,WUHU216HW,2013-08-14 02:07:00,
2013-08-13 21:12:00,56.3,45.0,30.15,NE,45,0.0,0.0,66,0.00,,,0.00,WUHU216HW,2013-08-14 02:12:00,
2013-08-13 21:17:00,55.7,44.9,30.15,NE,45,0.0,0.0,67,0.00,,,0.00,WUHU216HW,2013-08-14 02:17:00,
2013-08-13 21:22:00,55.2,45.2,30.15,NE,45,0.0,0.0,69,0.00,,,0.00,WUHU216HW,2013-08-14 02:22:00,
2013-08-13 21:27:00,55.0,45.5,30.15,NE,45,0.0,0.0,70,0.00,,,0.00,WUHU216HW,2013-08-14 02:27:00,
2013-08-13 21:32:00,55.0,46.1,30.15,NE,45,0.0,0.0,72,0.00,,,0.00,WUHU216HW,2013-08-14 02:32:00,
2013-08-13 21:37:00,54.5,45.6,30.15,NE,45,0.0,0.0,72,0.00,,,0.00,WUHU216HW,2013-08-14 02:37:00,
2013-08-13 21:42:00,54.1,45.6,30.15,NE,45,0.0,0.0,73,0.00,,,0.00,WUHU216HW,2013-08-14 02:42:00,
2013-08-13 21:47:00,53.7,45.3,30.15,NE,45,0.0,0.0,73,0.00,,,0.00,WUHU216HW,2013-08-14 02:47:00,
2013-08-13 21:52:00,53.4,45.1,30.15,NE,45,0.0,0.0,74,0.00,,,0.00,WUHU216HW,2013-08-14 02:52:00,
2013-08-13 21:57:00,52.8,44.8,30.15,NE,45,0.0,0.0,74,0.00,,,0.00,WUHU216HW,2013-08-14 02:57:00,
2013-08-13 22:02:00,52.8,45.1,30.16,NE,45,0.0,0.0,75,0.00,,,0.00,WUHU216HW,2013-08-14 03:02:00,
2013-08-13 22:07:00,52.7,45.3,30.15,NE,45,0.0,0.0,76,0.00,,,0.00,WUHU216HW,2013-08-14 03:07:00,
2013-08-13 22:12:00,53.2,46.2,30.15,NE,45,0.0,0.0,77,0.00,,,0.00,WUHU216HW,2013-08-14 03:12:00,
2013-08-13 22:17:00,53.2,45.8,30.16,NE,45,0.0,0.0,77,0.00,,,0.00,WUHU216HW,2013-08-14 03:17:00,
2013-08-13 22:22:00,52.5,45.8,30.16,NE,45,0.0,0.0,78,0.00,,,0.00,WUHU216HW,2013-08-14 03:22:00,
2013-08-13 22:27:00,52.3,45.6,30.16,NE,45,0.0,0.0,78,0.00,,,0.00,WUHU216HW,2013-08-14 03:27:00,
2013-08-13 22:32:00,51.9,45.3,30.16,NE,45,0.0,0.0,78,0.00,,,0.00,WUHU216HW,2013-08-14 03:32:00,
2013-08-13 22:37:00,51.6,44.9,30.16,NE,45,0.0,0.0,78,0.00,,,0.00,WUHU216HW,2013-08-14 03:37:00,
2013-08-13 22:42:00,51.4,45.1,30.16,NE,45,0.0,0.0,79,0.00,,,0.00,WUHU216HW,2013-08-14 03:42:00,
2013-08-13 22:47:00,51.4,44.9,30.16,NE,45,0.0,0.0,79,0.00,,,0.00,WUHU216HW,2013-08-14 03:47:00,
2013-08-13 22:52:00,51.2,44.9,30.16,NE,45,0.0,0.0,79,0.00,,,0.00,WUHU216HW,2013-08-14 03:52:00,
2013-08-13 22:57:00,50.9,44.6,30.16,NE,45,0.0,0.0,79,0.00,,,0.00,WUHU216HW,2013-08-14 03:57:00,
2013-08-13 23:01:00,50.7,44.4,30.16,NE,45,0.0,0.0,79,0.00,,,0.00,WUHU216HW,2013-08-14 04:01:00,
2013-08-13 23:06:00,50.7,44.7,30.16,NE,45,0.0,0.0,80,0.00,,,0.00,WUHU216HW,2013-08-14 04:06:00,
2013-08-13 23:11:00,50.7,44.7,30.16,NE,45,0.0,0.0,80,0.00,,,0.00,WUHU216HW,2013-08-14 04:11:00,
2013-08-13 23:16:00,50.7,44.7,30.16,NE,45,0.0,0.0,80,0.00,,,0.00,WUHU216HW,2013-08-14 04:16:00,
2013-08-13 23:21:00,50.5,44.6,30.16,NE,45,0.0,0.0,80,0.00,,,0.00,WUHU216HW,2013-08-14 04:21:00,
2013-08-13 23:26:00,50.1,44.5,30.16,NE,45,0.0,0.0,81,0.00,,,0.00,WUHU216HW,2013-08-14 04:26:00,
2013-08-13 23:31:00,49.8,44.1,30.17,NE,45,0.0,0.0,81,0.00,,,0.00,WUHU216HW,2013-08-14 04:31:00,
2013-08-13 23:36:00,49.6,44.0,30.17,NE,45,0.0,0.0,81,0.00,,,0.00,WUHU216HW,2013-08-14 04:36:00,
2013-08-13 23:41:00,49.8,44.4,30.17,NE,45,0.0,0.0,82,0.00,,,0.00,WUHU216HW,2013-08-14 04:41:00,
2013-08-13 23:46:00,49.8,44.4,30.17,NE,45,0.0,0.0,82,0.00,,,0.00,WUHU216HW,2013-08-14 04:46:00,
2013-08-13 23:51:00,49.8,44.4,30.17,NE,45,0.0,0.0,82,0.00,,,0.00,WUHU216HW,2013-08-14 04:51:00,
2013-08-13 23:56:00,49.8,44.4,30.17,NE,45,0.0,0.0,82,0.00,,,0.00,WUHU216HW,2013-08-14 04:56:00,